Weather History for Nashville, TN

Change the Weather History Date:

Tuesday, February 19, 2013

  Actual Average Record
Temperature  
Mean Temperature 42 °F 43 °F  
Max Temperature 49 °F 53 °F 75 °F (1986)
Min Temperature 34 °F 33 °F 5 °F (1958)
Degree Days  
Heating Degree Days 23 22  
Month to date heating degree days 422 465  
Since 1 July heating degree days 2430 2750  
Cooling Degree Days 0 0  
Month to date cooling degree days 0 0  
Year to date cooling degree days 4 0  
Moisture  
Dew Point 29 °F    
Average Humidity 60    
Maximum Humidity 93    
Minimum Humidity 26    
Precipitation  
Precipitation 0.10 in 0.15 in 2.96 in (1933)
Month to date precipitation 1.68 2.66  
Year to date precipitation 8.82 6.41  
Snow  
Snow 0.00 in 0.10 in 3.20 in (1963)
Month to date snowfall 0.7 1.8  
Since 1 July snowfall 1.0 4.9  
Snow Depth 0.00 in    
Sea Level Pressure  
Sea Level Pressure 30.05 in    
Wind  
Wind Speed 11 mph (West)    
Max Wind Speed 23 mph    
Max Gust Speed 30 mph    
Visibility 10 miles    
Events Rain    
T = Trace of Precipitation, MM = Missing Value Source: NWS Daily Summary

Daily Weather History Graph

Daily Weather History Graph

Search for Another Location

Airport:

Trip Planner

Search our weather history database for the weather conditions in past years. The results will help you decide how hot, cold, wet, or windy it might be!

Date:

Astronomy

Feb. 19, 2013 Rise Set
Actual Time 6:29 AM CST 5:32 PM CST
Civil Twilight 6:03 AM CST 5:58 PM CST
Nautical Twilight 5:33 AM CST 6:28 PM CST
Astronomical Twilight 5:03 AM CST 6:58 PM CST
Moon 12:09 PM CST 1:55 AM CST
Length of Visible Light 11h 55m
Length of Day
11h 03m
Waxing Gibbous, 67% of the Moon is Illuminated
Feb 19
Waxing Gibbous
Feb 25
Full
Mar 4
Last Quarter
Mar 11
New
Mar 19
First Quarter

Hourly Weather History & Observations

Time (CST) Temp. Windchill Dew Point Humidity Pressure Visibility Wind Dir Wind Speed Gust Speed Precip Events Conditions
12:53 AM 46.9 °F - 43.0 °F 86% 29.85 in 10.0 mi South 21.9 mph 29.9 mph 0.04 in Rain Light Rain
1:53 AM 46.9 °F - 44.1 °F 90% 29.87 in 10.0 mi South 13.8 mph 21.9 mph 0.00 in Rain Light Rain
2:12 AM 46.4 °F 41.1 °F 44.6 °F 93% 29.88 in 10.0 mi SSW 11.5 mph - 0.00 in   Overcast
2:28 AM 46.4 °F 41.5 °F 44.6 °F 93% 29.88 in 7.0 mi SSW 10.4 mph 21.9 mph 0.00 in Rain Light Rain
2:53 AM 46.9 °F - 45.0 °F 93% 29.89 in 4.0 mi SSW 10.4 mph - 0.03 in Rain Rain
3:04 AM 46.4 °F 42.9 °F 44.6 °F 93% 29.89 in 7.0 mi SSW 6.9 mph - N/A Rain Light Rain
3:43 AM 48.2 °F - 44.6 °F 87% 29.90 in 9.0 mi NW 10.4 mph 25.3 mph 0.04 in Rain Light Rain
3:51 AM 46.4 °F 40.1 °F 44.6 °F 93% 29.90 in 10.0 mi WNW 15.0 mph 20.7 mph 0.04 in Rain Light Rain
3:53 AM 46.9 °F - 43.0 °F 86% 29.90 in 10.0 mi WNW 10.4 mph 20.7 mph 0.04 in   Overcast
4:20 AM 44.6 °F 38.4 °F 39.2 °F 81% 29.93 in 9.0 mi NW 12.7 mph 24.2 mph 0.00 in Rain Light Rain
4:31 AM 42.8 °F 35.8 °F 39.2 °F 87% 29.94 in 10.0 mi NW 13.8 mph 24.2 mph 0.00 in   Overcast
4:36 AM 42.8 °F 36.2 °F 39.2 °F 87% 29.95 in 10.0 mi NW 12.7 mph 24.2 mph 0.00 in   Overcast
4:53 AM 43.0 °F 36.8 °F 37.9 °F 82% 29.96 in 10.0 mi NW 11.5 mph 21.9 mph 0.00 in   Overcast
5:22 AM 42.8 °F 37.5 °F 37.4 °F 81% 29.98 in 10.0 mi NW 9.2 mph 19.6 mph N/A   Overcast
5:53 AM 43.0 °F 35.7 °F 36.0 °F 76% 29.99 in 10.0 mi WNW 15.0 mph 20.7 mph N/A   Overcast
6:27 AM 42.8 °F 36.2 °F 33.8 °F 70% 30.01 in 10.0 mi WNW 12.7 mph 17.3 mph N/A   Scattered Clouds
6:53 AM 41.0 °F 36.4 °F 33.1 °F 73% 30.02 in 10.0 mi WNW 6.9 mph - N/A   Partly Cloudy
7:53 AM 41.0 °F 33.5 °F 32.0 °F 70% 30.06 in 10.0 mi WNW 13.8 mph 20.7 mph N/A   Partly Cloudy
8:53 AM 42.1 °F 37.1 °F 28.9 °F 60% 30.08 in 10.0 mi West 8.1 mph 19.6 mph N/A   Partly Cloudy
9:53 AM 43.0 °F 37.2 °F 25.0 °F 49% 30.10 in 10.0 mi West 10.4 mph 19.6 mph N/A   Partly Cloudy
10:53 AM 44.1 °F 37.4 °F 24.1 °F 45% 30.11 in 10.0 mi West 13.8 mph 21.9 mph N/A   Partly Cloudy
11:53 AM 46.0 °F 39.3 °F 21.0 °F 37% 30.10 in 10.0 mi West 16.1 mph 24.2 mph N/A   Partly Cloudy
12:53 PM 48.0 °F - 19.9 °F 33% 30.09 in 10.0 mi NW 12.7 mph 20.7 mph N/A   Partly Cloudy
1:53 PM 48.9 °F - 17.1 °F 28% 30.10 in 10.0 mi WNW 11.5 mph 19.6 mph N/A   Partly Cloudy
2:53 PM 48.2 °F - 15.8 °F 27% 30.10 in 10.0 mi WNW 17.3 mph 26.5 mph N/A   Clear
3:53 PM 48.0 °F - 16.0 °F 28% 30.13 in 10.0 mi West 15.0 mph 21.9 mph N/A   Clear
4:53 PM 45.0 °F 38.5 °F 12.9 °F 27% 30.15 in 10.0 mi WNW 13.8 mph 21.9 mph N/A   Clear
6:53 PM 39.9 °F 35.1 °F 15.1 °F 36% 30.20 in 10.0 mi WNW 6.9 mph - N/A   Clear
7:53 PM 37.9 °F 34.4 °F 16.0 °F 41% 30.20 in 10.0 mi WNW 4.6 mph - N/A   Clear
8:53 PM 37.9 °F - 16.0 °F 41% 30.21 in 10.0 mi Calm Calm - N/A   Clear
9:53 PM 35.1 °F 32.2 °F 17.1 °F 48% 30.23 in 10.0 mi SW 3.5 mph - N/A   Clear
10:53 PM 36.0 °F - 17.1 °F 46% 30.22 in 10.0 mi Calm Calm - N/A   Clear
11:53 PM 35.1 °F 31.0 °F 17.1 °F 48% 30.24 in 10.0 mi WNW 4.6 mph - N/A   Clear